Tracking 19485 objects as of 21-Jan-2019
HD Live streaming from Space Station
objects crossing your sky now

INTELSAT 508

Track INTELSAT 508 now!
INTELSAT 508 is classified as:


NORAD ID: 14786
Int'l Code: 1984-023A
Perigee: 36,599.2 km
Apogee: 36,701.7 km
Inclination: 15.8 °
Period: 1,480.1 minutes
Semi major axis: 43021 km
RCS: 7.6859 m2 (large)
Launch date: March 5, 1984
Source: International Telecommunications Satellite Organization (ITSO)
Launch site: FRENCH GUIANA (FRGUI)
aabbcc
Your satellite tracking list
Your tracking list is empty




NASA's NSSDC Master Catalog

Two Line Element Set (TLE):
1 14786U 84023A   19020.57516712 -.00000095 +00000-0 +00000-0 0  9994
2 14786 015.8485 359.0047 0011911 174.3400 192.3097 00.97291677088936
Source of the keplerian elements: AFSPC